TimeEST,TemperatureF,Dew PointF,Humidity,Sea Level PressureIn,VisibilityMPH,Wind Direction,Wind SpeedMPH,Gust SpeedMPH,PrecipitationIn,Events,Conditions,WindDirDegrees,DateUTC
12:26 AM,35.6,33.8,93,29.70,5.0,NE,6.9,-,0.00,Rain,Light Rain,40,2012-12-18 05:26:00
12:53 AM,35.1,34.0,96,29.71,5.0,NE,6.9,-,0.00,Rain,Light Rain,50,2012-12-18 05:53:00
1:53 AM,35.1,34.0,96,29.69,6.0,NE,8.1,-,0.01,Rain,Light Rain,50,2012-12-18 06:53:00
2:44 AM,35.6,33.8,93,29.66,5.0,NE,9.2,-,0.00,Rain,Light Rain,40,2012-12-18 07:44:00
2:53 AM,36.0,34.0,93,29.67,5.0,NE,8.1,-,0.00,Rain,Light Rain,50,2012-12-18 07:53:00
3:35 AM,37.4,35.6,93,29.63,5.0,NE,13.8,-,0.04,Rain,Light Rain,50,2012-12-18 08:35:00
3:53 AM,36.0,34.0,93,29.65,4.0,NE,9.2,-,0.06,Rain,Rain,50,2012-12-18 08:53:00
4:53 AM,36.0,34.0,93,29.63,4.0,NE,12.7,-,0.13,Rain,Rain,50,2012-12-18 09:53:00
5:53 AM,36.0,34.0,93,29.61,6.0,NE,18.4,23.0,0.16,Rain,Rain,50,2012-12-18 10:53:00
6:53 AM,35.1,33.1,92,29.60,5.0,ENE,20.7,27.6,0.12,Rain,Rain,60,2012-12-18 11:53:00
7:53 AM,34.0,33.1,96,29.59,10.0,ENE,18.4,24.2,0.04,Rain,Light Rain,60,2012-12-18 12:53:00
8:53 AM,34.0,33.1,96,29.57,8.0,ENE,16.1,-,0.01,Rain,Light Rain,60,2012-12-18 13:53:00
9:53 AM,35.1,33.1,92,29.57,7.0,ENE,12.7,24.2,0.00,,Overcast,70,2012-12-18 14:53:00
10:53 AM,35.1,33.1,92,29.54,10.0,ENE,17.3,-,0.00,Rain,Light Rain,60,2012-12-18 15:53:00
11:53 AM,35.1,33.1,92,29.51,10.0,ENE,15.0,23.0,0.00,,Overcast,60,2012-12-18 16:53:00
12:41 PM,35.6,33.8,93,29.48,2.0,ENE,13.8,20.7,0.01,Rain,Light Rain,60,2012-12-18 17:41:00
12:53 PM,35.1,34.0,96,29.49,3.0,ENE,11.5,-,0.01,Rain,Light Rain,60,2012-12-18 17:53:00
1:53 PM,35.1,34.0,96,29.49,4.0,ENE,11.5,-,0.00,,Overcast,60,2012-12-18 18:53:00
2:53 PM,35.1,34.0,96,29.49,5.0,ENE,11.5,-,0.00,Rain,Light Rain,70,2012-12-18 19:53:00
3:50 PM,35.6,33.8,93,29.48,5.0,ENE,11.5,-,0.01,Rain,Light Rain,60,2012-12-18 20:50:00
3:53 PM,35.1,34.0,96,29.50,4.0,ENE,10.4,-,0.01,,Overcast,60,2012-12-18 20:53:00
4:53 PM,35.1,34.0,96,29.51,6.0,ENE,8.1,-,0.00,Rain,Light Rain,70,2012-12-18 21:53:00
5:53 PM,34.0,33.1,96,29.53,5.0,NNE,3.5,-,0.01,,Overcast,30,2012-12-18 22:53:00
6:53 PM,34.0,33.1,96,29.55,4.0,NW,3.5,-,0.00,Snow,Light Snow,320,2012-12-18 23:53:00
7:53 PM,33.1,32.0,96,29.57,5.0,WNW,4.6,-,0.01,Snow,Light Snow,300,2012-12-19 00:53:00
8:12 PM,33.8,32.0,93,29.56,5.0,WNW,4.6,-,0.00,Snow,Light Snow,300,2012-12-19 01:12:00
8:22 PM,33.8,32.0,93,29.56,4.0,WNW,3.5,-,0.00,Snow,Light Snow,290,2012-12-19 01:22:00
8:51 PM,33.8,32.0,93,29.57,2.5,West,3.5,-,0.00,Snow,Light Snow,280,2012-12-19 01:51:00
8:53 PM,33.1,32.0,96,29.58,2.5,West,4.6,-,0.00,Snow,Light Snow,270,2012-12-19 01:53:00
9:01 PM,33.8,32.0,93,29.57,3.0,West,4.6,-,0.00,Snow,Light Snow,270,2012-12-19 02:01:00
9:31 PM,33.8,32.0,93,29.58,2.5,West,4.6,-,0.00,Snow,Light Snow,260,2012-12-19 02:31:00
9:53 PM,33.1,32.0,96,29.59,2.5,West,4.6,-,0.01,Snow,Light Snow,260,2012-12-19 02:53:00
10:25 PM,33.8,32.0,93,29.59,3.0,WSW,3.5,-,0.00,Snow,Light Snow,240,2012-12-19 03:25:00
10:36 PM,33.8,32.0,93,29.59,2.5,WSW,5.8,-,0.00,Snow,Light Snow,240,2012-12-19 03:36:00
10:53 PM,33.1,32.0,96,29.61,2.5,WSW,4.6,-,0.00,Snow,Light Snow,240,2012-12-19 03:53:00
11:05 PM,33.8,32.0,93,29.59,3.0,SW,5.8,-,0.00,Snow,Light Snow,230,2012-12-19 04:05:00
11:17 PM,33.8,32.0,93,29.59,2.5,WSW,5.8,-,0.00,Snow,Light Snow,240,2012-12-19 04:17:00
11:49 PM,33.8,32.0,93,29.60,3.0,WSW,4.6,-,0.01,Snow,Light Snow,240,2012-12-19 04:49:00
11:53 PM,33.1,32.0,96,29.62,2.5,WSW,5.8,-,0.01,Snow,Light Snow,240,2012-12-19 04:53:00